Fort Leonard Wood, MO

2:14 AM CDT on October 23, 2019 (GMT -0500)
Waynesville Regional At Forney Field

Weather History for KTBN - May, 2019

Change the Weather History Date:

Wednesday, May 29, 2019

  Actual Average Record
Temperature  
Mean Temperature 72 °F -  
Max Temperature 82 °F 75 °F 89 °F (2000)
Min Temperature 61 °F 59 °F 48 °F (1997)
Cooling Degree Days 6    
Growing Degree Days 22 (Base 50)    
Moisture  
Dew Point 65 °F    
Average Humidity 80    
Maximum Humidity 91    
Minimum Humidity 63    
Precipitation  
Precipitation 0.11 in - - ()
Sea Level Pressure  
Sea Level Pressure 29.77 in    
Wind  
Wind Speed 7 mph (SSW)    
Max Wind Speed 15 mph    
Max Gust Speed 21 mph    
Visibility 9 miles    
Events Rain , Thunderstorm    
Averages and records for this station are not official NWS values.
T = Trace of Precipitation, MM = Missing Value Source: NWS Daily Summary

Daily Weather History Graph

Daily Weather History Graph

Search for Another Location

Airport or City:

Astronomy

May. 29, 2019 Rise Set
Actual Time 5:49 AM CDT 8:22 PM CDT
Civil Twilight 5:19 AM CDT 8:53 PM CDT
Nautical Twilight 4:41 AM CDT 9:30 PM CDT
Astronomical Twilight 3:59 AM CDT 10:13 PM CDT
Moon 3:21 AM CDT (5/29) 3:37 PM CDT (5/29)
Length of Visible Light 15h 33m
Length of Day
14h 32m
Waning Crescent, 23% of the Moon is Illuminated
May 29
Waning Crescent
Jun 3
New
Jun 10
First Quarter
Jun 17
Full
Jun 25
Last Quarter

Hourly Weather History & Observations

Time (CDT) Temp. Heat Index Dew Point Humidity Pressure Visibility Wind Dir Wind Speed Gust Speed Precip Events Conditions
12:56 AM 73.4 °F - 64.6 °F 74% 29.75 in 10.0 mi South 4.6 mph - N/A   Scattered Clouds
1:56 AM 71.6 °F - 64.8 °F 79% 29.72 in 7.0 mi SE 6.9 mph - N/A   Mostly Cloudy
2:13 AM 71.6 °F - 64.4 °F 78% 29.70 in 6.0 mi SE 5.8 mph - N/A   Light Drizzle
2:20 AM 71.6 °F - 64.4 °F 78% 29.70 in 6.0 mi SE 4.6 mph - N/A   Haze
2:56 AM 70.7 °F - 64.6 °F 81% 29.70 in 6.0 mi SE 4.6 mph - 0.00 in   Haze
3:27 AM 71.6 °F - 64.4 °F 78% 29.70 in 7.0 mi SE 3.5 mph - N/A   Light Drizzle
3:36 AM 69.8 °F - 64.4 °F 83% 29.70 in 6.0 mi SSE 4.6 mph - N/A   Haze
3:56 AM 70.2 °F - 65.1 °F 84% 29.73 in 6.0 mi SSE 6.9 mph - 0.00 in   Haze
4:56 AM 72.9 °F - 65.5 °F 78% 29.74 in 10.0 mi SSW 6.9 mph - N/A   Mostly Cloudy
5:10 AM 73.4 °F - 66.2 °F 78% 29.73 in 10.0 mi SSW 9.2 mph - N/A   Light Drizzle
5:30 AM 71.6 °F - 68.0 °F 88% 29.75 in 10.0 mi SSW 11.5 mph 17.3 mph N/A   Mostly Cloudy
5:32 AM 71.6 °F - 68.0 °F 88% 29.74 in 10.0 mi SSW 9.2 mph 17.3 mph N/A   Light Drizzle
5:55 AM 71.6 °F - 68.0 °F 88% 29.74 in 10.0 mi SSW 6.9 mph - N/A   Clear
5:56 AM 70.9 °F - 67.5 °F 89% 29.74 in 10.0 mi SSW 6.9 mph - 0.09 in   Clear
6:56 AM 70.0 °F - 66.2 °F 88% 29.74 in 10.0 mi SW 5.8 mph - N/A   Partly Cloudy
7:56 AM 72.9 °F - 66.6 °F 81% 29.76 in 10.0 mi SSW 8.1 mph - N/A   Clear
8:56 AM 76.1 °F - 67.5 °F 74% 29.76 in 10.0 mi SW 9.2 mph - N/A   Clear
9:56 AM 79.2 °F - 68.5 °F 70% 29.76 in 10.0 mi SSW 9.2 mph - N/A   Clear
10:56 AM 80.8 °F 83.6 °F 68.4 °F 66% 29.76 in 10.0 mi SW 12.7 mph 19.6 mph N/A   Clear
11:56 AM 81.9 °F 84.8 °F 68.4 °F 63% 29.75 in 10.0 mi SW 12.7 mph 19.6 mph N/A   Mostly Cloudy
12:56 PM 81.3 °F 84.5 °F 68.9 °F 66% 29.76 in 10.0 mi SW 11.5 mph - N/A   Scattered Clouds
1:56 PM 79.9 °F - 68.7 °F 69% 29.77 in 10.0 mi SW 6.9 mph - N/A   Partly Cloudy
2:56 PM 77.2 °F - 69.8 °F 78% 29.76 in 10.0 mi WSW 5.8 mph - N/A Thunderstorm Partly Cloudy
2:57 PM 77.0 °F - 69.8 °F 78% 29.77 in 10.0 mi West 6.9 mph - N/A Thunderstorm Thunderstorm
2:58 PM 77.0 °F - 69.8 °F 78% 29.77 in 10.0 mi West 8.1 mph - N/A Thunderstorm Unknown
3:11 PM 73.4 °F - 64.4 °F 73% 29.75 in 10.0 mi WNW 9.2 mph 20.7 mph N/A   Light Drizzle
3:26 PM 73.4 °F - 62.6 °F 69% 29.79 in 10.0 mi South 10.4 mph - N/A   Clear
3:31 PM 73.4 °F - 62.6 °F 69% 29.80 in 10.0 mi SSW 6.9 mph - N/A Rain , Thunderstorm Light Rain
3:49 PM 71.6 °F - 64.4 °F 78% 29.80 in 10.0 mi SSW 11.5 mph 18.4 mph N/A   Clear
3:56 PM 70.3 °F - 62.4 °F 76% 29.81 in 10.0 mi SW 13.8 mph 20.7 mph 0.01 in   Clear
4:44 PM 68.0 °F - 62.6 °F 83% 29.83 in 10.0 mi SW 6.9 mph - N/A Rain Light Rain
4:56 PM 67.1 °F - 62.8 °F 86% 29.83 in 10.0 mi WSW 4.6 mph - 0.01 in Rain Light Rain
5:14 PM 66.2 °F - 62.6 °F 88% 29.81 in 10.0 mi WSW 5.8 mph - N/A   Clear
5:19 PM 66.2 °F - 62.6 °F 88% 29.81 in 10.0 mi SW 6.9 mph - N/A Rain Light Rain
5:42 PM 66.2 °F - 60.8 °F 83% 29.82 in 10.0 mi SW 8.1 mph - N/A   Partly Cloudy
5:56 PM 66.2 °F - 60.4 °F 82% 29.83 in 10.0 mi SSW 6.9 mph - 0.00 in   Clear
6:43 PM 66.2 °F - 60.8 °F 83% 29.82 in 10.0 mi SSW 6.9 mph - N/A   Light Drizzle
6:56 PM 65.7 °F - 60.1 °F 82% 29.82 in 10.0 mi SSW 9.2 mph - 0.00 in   Light Drizzle
7:03 PM 66.2 °F - 60.8 °F 83% 29.81 in 10.0 mi South 9.2 mph - N/A   Partly Cloudy
7:56 PM 64.8 °F - 59.7 °F 84% 29.77 in 10.0 mi SE 15.0 mph - 0.00 in   Scattered Clouds
8:56 PM 64.0 °F - 60.1 °F 87% 29.75 in 10.0 mi SSE 6.9 mph - N/A   Scattered Clouds
9:56 PM 62.4 °F - 59.4 °F 90% 29.80 in 10.0 mi West 5.8 mph - N/A   Mostly Cloudy
10:56 PM 62.1 °F - 58.8 °F 89% 29.82 in 10.0 mi West 4.6 mph - N/A   Scattered Clouds
11:56 PM 61.3 °F - 58.6 °F 91% 29.84 in 10.0 mi West 4.6 mph - N/A   Scattered Clouds